Huntingburg, IN

5:50 PM EST on December 17, 2017 (GMT -0500)
Huntingburg

Weather History for KHNB - April, 2012

Change the Weather History Date:

Saturday, April 28, 2012

  Actual Average Record
Temperature  
Mean Temperature 66 °F -  
Max Temperature 80 °F 67 °F 80 °F (2012)
Min Temperature 53 °F 48 °F 39 °F (2004)
Cooling Degree Days 2    
Growing Degree Days 16 (Base 50)    
Moisture  
Dew Point 49 °F    
Average Humidity 59    
Maximum Humidity 82    
Minimum Humidity 41    
Precipitation  
Precipitation 0.00 in - - ()
Sea Level Pressure  
Sea Level Pressure 29.98 in    
Wind  
Wind Speed 10 mph (SE)    
Max Wind Speed 17 mph    
Max Gust Speed 29 mph    
Visibility 10 miles    
Events      
Averages and records for this station are not official NWS values.
T = Trace of Precipitation, MM = Missing Value Source: NWS Daily Summary

Daily Weather History Graph

Daily Weather History Graph

Search for Another Location

Airport or City:

Trip Planner

Search our weather history database for the weather conditions in past years. The results will help you decide how hot, cold, wet, or windy it might be!

Date:

Astronomy

Apr. 28, 2012 Rise Set
Actual Time 6:54 AM EDT 8:36 PM EDT
Civil Twilight 6:25 AM EDT 9:05 PM EDT
Nautical Twilight 5:51 AM EDT 9:39 PM EDT
Astronomical Twilight 5:15 AM EDT 10:15 PM EDT
Moon 12:33 PM EDT (4/28) 2:00 AM EDT (4/28)
Length of Visible Light 14h 39m
Length of Day
13h 42m
Waxing Crescent, 42% of the Moon is Illuminated
Apr 28
Waxing Crescent
Apr 29
First Quarter
May 5
Full
May 12
Last Quarter
May 20
New

Hourly Weather History & Observations

Time (EDT) Temp. Heat Index Dew Point Humidity Pressure Visibility Wind Dir Wind Speed Gust Speed Precip Events Conditions
12:15 AM 55.4 °F - 33.8 °F 44% 30.03 in 10.0 mi East 9.2 mph - N/A   Overcast
12:35 AM 55.4 °F - 33.8 °F 44% 30.03 in 10.0 mi East 9.2 mph - N/A   Overcast
12:55 AM 57.2 °F - 33.8 °F 41% 30.03 in 10.0 mi East 10.4 mph - N/A   Overcast
1:15 AM 57.2 °F - 33.8 °F 41% 30.03 in 10.0 mi East 8.1 mph - N/A   Overcast
1:35 AM 57.2 °F - 33.8 °F 41% 30.04 in 10.0 mi East 6.9 mph - N/A   Overcast
1:55 AM 57.2 °F - 33.8 °F 41% 30.04 in 10.0 mi East 8.1 mph - N/A   Overcast
2:15 AM 57.2 °F - 33.8 °F 41% 30.04 in 10.0 mi East 8.1 mph - N/A   Overcast
2:35 AM 57.2 °F - 33.8 °F 41% 30.03 in 10.0 mi ESE 8.1 mph - N/A   Overcast
2:55 AM 55.4 °F - 33.8 °F 44% 30.02 in 10.0 mi ESE 10.4 mph - N/A   Mostly Cloudy
3:15 AM 57.2 °F - 35.6 °F 44% 30.02 in 10.0 mi East 6.9 mph - N/A   Mostly Cloudy
3:35 AM 55.4 °F - 33.8 °F 44% 30.01 in 10.0 mi East 8.1 mph - N/A   Mostly Cloudy
3:55 AM 53.6 °F - 33.8 °F 47% 30.00 in 10.0 mi ESE 10.4 mph - N/A   Partly Cloudy
4:15 AM 53.6 °F - 33.8 °F 47% 30.00 in 10.0 mi ESE 5.8 mph - N/A   Clear
4:35 AM 53.6 °F - 33.8 °F 47% 29.99 in 10.0 mi ESE 9.2 mph - N/A   Scattered Clouds
4:55 AM 53.6 °F - 35.6 °F 51% 29.99 in 10.0 mi ESE 10.4 mph - N/A   Partly Cloudy
5:15 AM 53.6 °F - 35.6 °F 51% 29.99 in 10.0 mi ESE 9.2 mph - N/A   Clear
5:35 AM 53.6 °F - 35.6 °F 51% 29.98 in 10.0 mi ESE 8.1 mph - N/A   Clear
5:55 AM 53.6 °F - 35.6 °F 51% 29.97 in 10.0 mi ESE 11.5 mph - N/A   Partly Cloudy
6:15 AM 53.6 °F - 35.6 °F 51% 29.98 in 10.0 mi ESE 11.5 mph - N/A   Partly Cloudy
6:55 AM 53.6 °F - 35.6 °F 51% 29.98 in 10.0 mi SE 11.5 mph - N/A   Partly Cloudy
7:15 AM 53.6 °F - 37.4 °F 54% 29.98 in 10.0 mi ESE 11.5 mph - N/A   Mostly Cloudy
7:35 AM 53.6 °F - 37.4 °F 54% 29.99 in 10.0 mi ESE 10.4 mph - N/A   Mostly Cloudy
7:55 AM 53.6 °F - 37.4 °F 54% 29.99 in 10.0 mi ESE 9.2 mph - N/A   Mostly Cloudy
8:15 AM 53.6 °F - 39.2 °F 58% 29.99 in 10.0 mi ESE 9.2 mph - N/A   Overcast
8:35 AM 53.6 °F - 39.2 °F 58% 29.98 in 10.0 mi SE 9.2 mph - N/A   Scattered Clouds
8:55 AM 55.4 °F - 41.0 °F 58% 29.98 in 10.0 mi ESE 11.5 mph - N/A   Clear
9:35 AM 57.2 °F - 42.8 °F 59% 29.98 in 10.0 mi SE 12.7 mph - N/A   Mostly Cloudy
9:55 AM 60.8 °F - 44.6 °F 55% 29.98 in 10.0 mi SE 12.7 mph - N/A   Mostly Cloudy
10:15 AM 62.6 °F - 46.4 °F 55% 29.97 in 10.0 mi SSE 11.5 mph - N/A   Partly Cloudy
10:35 AM 64.4 °F - 48.2 °F 56% 29.98 in 10.0 mi South 8.1 mph - N/A   Clear
10:55 AM 66.2 °F - 51.8 °F 60% 29.97 in 10.0 mi South 10.4 mph - N/A   Clear
11:15 AM 68.0 °F - 53.6 °F 60% 29.97 in 10.0 mi South 9.2 mph - N/A   Scattered Clouds
11:35 AM 69.8 °F - 53.6 °F 56% 29.95 in 10.0 mi South 10.4 mph - N/A   Scattered Clouds
11:55 AM 71.6 °F - 55.4 °F 57% 29.94 in 10.0 mi South 9.2 mph - N/A   Scattered Clouds
12:15 PM 71.6 °F - 57.2 °F 60% 29.93 in 10.0 mi South 9.2 mph - N/A   Scattered Clouds
12:35 PM 73.4 °F - 57.2 °F 57% 29.93 in 10.0 mi SSW 3.5 mph - N/A   Scattered Clouds
12:55 PM 77.0 °F - 60.8 °F 57% 29.92 in 10.0 mi SW 11.5 mph 16.1 mph N/A   Scattered Clouds
1:35 PM 77.0 °F - 62.6 °F 61% 29.92 in 10.0 mi SW 11.5 mph - N/A   Mostly Cloudy
1:55 PM 78.8 °F - 62.6 °F 57% 29.92 in 10.0 mi SSW 12.7 mph - N/A   Mostly Cloudy
2:15 PM 80.6 °F 81.8 °F 62.6 °F 54% 29.92 in 10.0 mi SW 12.7 mph 17.3 mph N/A   Mostly Cloudy
2:35 PM 78.8 °F - 62.6 °F 57% 29.90 in 10.0 mi SSW 12.7 mph 16.1 mph N/A   Mostly Cloudy
2:55 PM 78.8 °F - 62.6 °F 57% 29.90 in 10.0 mi SSW 9.2 mph 16.1 mph N/A   Overcast
3:15 PM 78.8 °F - 62.6 °F 57% 29.90 in 10.0 mi SSW 9.2 mph - N/A   Overcast
3:35 PM 78.8 °F - 62.6 °F 57% 29.90 in 10.0 mi SW 10.4 mph - N/A   Overcast
3:55 PM 80.6 °F 82.3 °F 64.4 °F 58% 29.91 in 10.0 mi SW 9.2 mph - N/A   Mostly Cloudy
4:15 PM 80.6 °F 81.8 °F 62.6 °F 54% 29.90 in 10.0 mi South 8.1 mph - N/A   Mostly Cloudy
4:35 PM 78.8 °F - 62.6 °F 57% 29.90 in 10.0 mi SSW 8.1 mph - N/A   Mostly Cloudy
5:15 PM 80.6 °F 82.3 °F 64.4 °F 58% 29.88 in 10.0 mi SW 10.4 mph - N/A   Scattered Clouds
5:35 PM 80.6 °F 82.3 °F 64.4 °F 58% 29.88 in 10.0 mi SSW 10.4 mph - N/A   Scattered Clouds
5:55 PM 78.8 °F - 64.4 °F 61% 29.88 in 10.0 mi SW 13.8 mph 17.3 mph N/A   Scattered Clouds
6:15 PM 78.8 °F - 62.6 °F 57% 29.88 in 10.0 mi SW 12.7 mph - N/A   Partly Cloudy
6:35 PM 77.0 °F - 62.6 °F 61% 29.91 in 10.0 mi West 17.3 mph 20.7 mph N/A   Scattered Clouds
6:55 PM 75.2 °F - 62.6 °F 65% 29.94 in 10.0 mi West 15.0 mph - N/A   Partly Cloudy
7:15 PM 66.2 °F - 55.4 °F 68% 29.98 in 10.0 mi NNE 16.1 mph 28.8 mph N/A   Mostly Cloudy
7:35 PM 64.4 °F - 55.4 °F 73% 29.98 in 10.0 mi NE 12.7 mph - N/A   Overcast
7:55 PM 64.4 °F - 57.2 °F 77% 29.97 in 10.0 mi NE 10.4 mph - N/A   Mostly Cloudy
8:15 PM 64.4 °F - 57.2 °F 77% 29.97 in 10.0 mi NE 10.4 mph - N/A   Scattered Clouds
8:35 PM 64.4 °F - 57.2 °F 77% 29.98 in 10.0 mi East 10.4 mph - N/A   Scattered Clouds
8:55 PM 62.6 °F - 57.2 °F 82% 30.01 in 10.0 mi NE 6.9 mph - N/A   Scattered Clouds
9:15 PM 62.6 °F - 55.4 °F 77% 30.01 in 10.0 mi East 5.8 mph - N/A   Partly Cloudy
9:35 PM 62.6 °F - 55.4 °F 77% 30.03 in 10.0 mi NNE 3.5 mph - N/A   Clear
9:55 PM 62.6 °F - 55.4 °F 77% 30.04 in 10.0 mi NE 6.9 mph - N/A   Clear
10:15 PM 60.8 °F - 55.4 °F 82% 30.05 in 10.0 mi NE 8.1 mph - N/A   Clear
10:35 PM 60.8 °F - 55.4 °F 82% 30.08 in 10.0 mi NNE 9.2 mph - N/A   Clear
10:55 PM 60.8 °F - 53.6 °F 77% 30.10 in 10.0 mi NNE 9.2 mph - N/A   Partly Cloudy
11:15 PM 59.0 °F - 53.6 °F 82% 30.12 in 10.0 mi NNE 15.0 mph 23.0 mph N/A   Mostly Cloudy
11:35 PM 59.0 °F - 53.6 °F 82% 30.09 in 10.0 mi NE 12.7 mph - N/A   Partly Cloudy
11:55 PM 59.0 °F - 53.6 °F 82% 30.05 in 10.0 mi East 10.4 mph - N/A   Clear